Time,TemperatureF,DewpointF,PressureIn,WindDirection,WindDirectionDegrees,WindSpeedMPH,WindSpeedGustMPH,Humidity,HourlyPrecipIn,Conditions,Clouds,dailyrainin,SoftwareType,DateUTC
2013-07-21 04:52:00,48.0,45.0,-100.00,North,-999,-999.0,-999.0,88,-99.99,,,-99.99,,2013-07-21 11:52:00,
2013-07-21 05:32:00,47.0,42.0,-100.00,North,-999,-999.0,-999.0,81,-99.99,,,-99.99,,2013-07-21 12:32:00,
2013-07-21 06:42:00,48.0,39.0,-100.00,North,-999,-999.0,-999.0,71,-99.99,,,-99.99,,2013-07-21 13:42:00,
2013-07-21 06:53:00,48.0,39.0,-100.00,North,-999,-999.0,-999.0,71,-99.99,,,-99.99,,2013-07-21 13:53:00,
2013-07-21 07:43:00,50.0,38.0,-100.00,North,-999,-999.0,-999.0,63,-99.99,,,-99.99,,2013-07-21 14:43:00,
2013-07-21 07:53:00,50.0,38.0,-100.00,North,-999,-999.0,-999.0,63,-99.99,,,-99.99,,2013-07-21 14:53:00,
2013-07-21 08:22:00,54.0,34.0,-100.00,North,-999,-999.0,-999.0,48,-99.99,,,-99.99,,2013-07-21 15:22:00,
2013-07-21 08:42:00,57.0,31.0,-100.00,North,-999,-999.0,-999.0,38,-99.99,,,-99.99,,2013-07-21 15:42:00,
2013-07-21 08:53:00,57.0,31.0,-100.00,North,-999,-999.0,-999.0,37,-99.99,,,-99.99,,2013-07-21 15:53:00,
2013-07-21 09:01:00,59.0,32.0,-100.00,North,-999,-999.0,-999.0,36,-99.99,,,-99.99,,2013-07-21 16:01:00,
2013-07-21 09:11:00,59.0,32.0,-100.00,North,-999,-999.0,-999.0,36,-99.99,,,-99.99,,2013-07-21 16:11:00,
2013-07-21 09:22:00,60.0,32.0,-100.00,North,-999,-999.0,-999.0,35,-99.99,,,-99.99,,2013-07-21 16:22:00,
2013-07-21 09:32:00,61.0,33.0,-100.00,North,-999,-999.0,-999.0,34,-99.99,,,-99.99,,2013-07-21 16:32:00,
2013-07-21 09:42:00,63.0,35.0,-100.00,North,-999,-999.0,-999.0,35,-99.99,,,-99.99,,2013-07-21 16:42:00,
2013-07-21 09:52:00,63.0,35.0,-100.00,North,-999,-999.0,-999.0,35,-99.99,,,-99.99,,2013-07-21 16:52:00,
2013-07-21 10:02:00,64.0,38.0,-100.00,North,-999,-999.0,-999.0,38,-99.99,,,-99.99,,2013-07-21 17:02:00,
2013-07-21 10:11:00,64.0,38.0,-100.00,North,-999,-999.0,-999.0,38,-99.99,,,-99.99,,2013-07-21 17:11:00,
2013-07-21 10:22:00,65.0,40.0,-100.00,North,-999,-999.0,-999.0,39,-99.99,,,-99.99,,2013-07-21 17:22:00,
2013-07-21 10:33:00,67.0,40.0,-100.00,North,-999,-999.0,-999.0,38,-99.99,,,-99.99,,2013-07-21 17:33:00,
2013-07-21 10:42:00,68.0,42.0,-100.00,North,-999,-999.0,-999.0,39,-99.99,,,-99.99,,2013-07-21 17:42:00,
2013-07-21 10:53:00,68.0,42.0,-100.00,North,-999,-999.0,-999.0,39,-99.99,,,-99.99,,2013-07-21 17:53:00,
2013-07-21 11:01:00,69.0,44.0,-100.00,North,-999,-999.0,-999.0,40,-99.99,,,-99.99,,2013-07-21 18:01:00,
2013-07-21 11:11:00,69.0,44.0,-100.00,North,-999,-999.0,-999.0,40,-99.99,,,-99.99,,2013-07-21 18:11:00,
2013-07-21 11:21:00,70.0,44.0,-100.00,North,-999,-999.0,-999.0,39,-99.99,,,-99.99,,2013-07-21 18:21:00,
2013-07-21 11:32:00,71.0,45.0,-100.00,North,-999,-999.0,-999.0,39,-99.99,,,-99.99,,2013-07-21 18:32:00,
2013-07-21 11:43:00,71.0,45.0,-100.00,North,-999,-999.0,-999.0,39,-99.99,,,-99.99,,2013-07-21 18:43:00,
2013-07-21 11:52:00,71.0,45.0,-100.00,North,-999,-999.0,-999.0,39,-99.99,,,-99.99,,2013-07-21 18:52:00,
2013-07-21 12:01:00,72.0,44.0,-100.00,North,-999,-999.0,-999.0,36,-99.99,,,-99.99,,2013-07-21 19:01:00,
2013-07-21 12:11:00,72.0,44.0,-100.00,North,-999,-999.0,-999.0,36,-99.99,,,-99.99,,2013-07-21 19:11:00,
2013-07-21 12:22:00,73.0,45.0,-100.00,North,-999,-999.0,-999.0,36,-99.99,,,-99.99,,2013-07-21 19:22:00,
2013-07-21 12:32:00,74.0,46.0,-100.00,North,-999,-999.0,-999.0,36,-99.99,,,-99.99,,2013-07-21 19:32:00,
2013-07-21 12:42:00,74.0,46.0,-100.00,North,-999,-999.0,-999.0,37,-99.99,,,-99.99,,2013-07-21 19:42:00,
2013-07-21 12:52:00,74.0,46.0,-100.00,North,-999,-999.0,-999.0,37,-99.99,,,-99.99,,2013-07-21 19:52:00,
2013-07-21 13:01:00,76.0,45.0,-100.00,North,-999,-999.0,-999.0,34,-99.99,,,-99.99,,2013-07-21 20:01:00,
2013-07-21 13:11:00,76.0,45.0,-100.00,North,-999,-999.0,-999.0,34,-99.99,,,-99.99,,2013-07-21 20:11:00,
2013-07-21 13:22:00,75.0,45.0,-100.00,North,-999,-999.0,-999.0,35,-99.99,,,-99.99,,2013-07-21 20:22:00,
2013-07-21 13:32:00,75.0,46.0,-100.00,North,-999,-999.0,-999.0,35,-99.99,,,-99.99,,2013-07-21 20:32:00,
2013-07-21 13:42:00,76.0,45.0,-100.00,North,-999,-999.0,-999.0,33,-99.99,,,-99.99,,2013-07-21 20:42:00,
2013-07-21 13:52:00,76.0,45.0,-100.00,North,-999,-999.0,-999.0,33,-99.99,,,-99.99,,2013-07-21 20:52:00,
2013-07-21 14:01:00,76.0,45.0,-100.00,North,-999,-999.0,-999.0,33,-99.99,,,-99.99,,2013-07-21 21:01:00,
2013-07-21 14:11:00,77.0,47.0,-100.00,North,-999,-999.0,-999.0,35,-99.99,,,-99.99,,2013-07-21 21:11:00,
2013-07-21 14:22:00,77.0,47.0,-100.00,North,-999,-999.0,-999.0,35,-99.99,,,-99.99,,2013-07-21 21:22:00,
2013-07-21 14:32:00,77.0,46.0,-100.00,North,-999,-999.0,-999.0,34,-99.99,,,-99.99,,2013-07-21 21:32:00,
2013-07-21 14:52:00,77.0,46.0,-100.00,North,-999,-999.0,-999.0,34,-99.99,,,-99.99,,2013-07-21 21:52:00,
2013-07-21 15:01:00,78.0,46.0,-100.00,North,-999,-999.0,-999.0,33,-99.99,,,-99.99,,2013-07-21 22:01:00,
2013-07-21 15:11:00,77.0,46.0,-100.00,North,-999,-999.0,-999.0,33,-99.99,,,-99.99,,2013-07-21 22:11:00,
2013-07-21 15:22:00,77.0,46.0,-100.00,North,-999,-999.0,-999.0,33,-99.99,,,-99.99,,2013-07-21 22:22:00,
2013-07-21 15:32:00,77.0,46.0,-100.00,North,-999,-999.0,-999.0,33,-99.99,,,-99.99,,2013-07-21 22:32:00,
2013-07-21 15:42:00,77.0,45.0,-100.00,North,-999,-999.0,-999.0,32,-99.99,,,-99.99,,2013-07-21 22:42:00,
2013-07-21 15:52:00,77.0,45.0,-100.00,North,-999,-999.0,-999.0,32,-99.99,,,-99.99,,2013-07-21 22:52:00,
2013-07-21 16:01:00,77.0,44.0,-100.00,North,-999,-999.0,-999.0,31,-99.99,,,-99.99,,2013-07-21 23:01:00,
2013-07-21 16:11:00,77.0,44.0,-100.00,North,-999,-999.0,-999.0,31,-99.99,,,-99.99,,2013-07-21 23:11:00,
2013-07-21 16:22:00,76.0,45.0,-100.00,North,-999,-999.0,-999.0,33,-99.99,,,-99.99,,2013-07-21 23:22:00,
2013-07-21 16:32:00,76.0,45.0,-100.00,North,-999,-999.0,-999.0,33,-99.99,,,-99.99,,2013-07-21 23:32:00,
2013-07-21 16:42:00,76.0,46.0,-100.00,North,-999,-999.0,-999.0,35,-99.99,,,-99.99,,2013-07-21 23:42:00,
2013-07-21 16:53:00,76.0,46.0,-100.00,North,-999,-999.0,-999.0,35,-99.99,,,-99.99,,2013-07-21 23:53:00,
2013-07-21 17:01:00,76.0,46.0,-100.00,North,-999,-999.0,-999.0,34,-99.99,,,-99.99,,2013-07-22 00:01:00,
2013-07-21 17:11:00,76.0,46.0,-100.00,North,-999,-999.0,-999.0,34,-99.99,,,-99.99,,2013-07-22 00:11:00,
2013-07-21 17:22:00,76.0,46.0,-100.00,North,-999,-999.0,-999.0,35,-99.99,,,-99.99,,2013-07-22 00:22:00,
2013-07-21 17:32:00,75.0,44.0,-100.00,North,-999,-999.0,-999.0,33,-99.99,,,-99.99,,2013-07-22 00:32:00,
2013-07-21 17:53:00,75.0,45.0,-100.00,North,-999,-999.0,-999.0,34,-99.99,,,-99.99,,2013-07-22 00:53:00,
2013-07-21 18:02:00,73.0,44.0,-100.00,North,-999,-999.0,-999.0,36,-99.99,,,-99.99,,2013-07-22 01:02:00,
2013-07-21 18:11:00,73.0,44.0,-100.00,North,-999,-999.0,-999.0,36,-99.99,,,-99.99,,2013-07-22 01:11:00,
2013-07-21 18:21:00,74.0,45.0,-100.00,North,-999,-999.0,-999.0,36,-99.99,,,-99.99,,2013-07-22 01:21:00,
2013-07-21 18:42:00,72.0,45.0,-100.00,North,-999,-999.0,-999.0,38,-99.99,,,-99.99,,2013-07-22 01:42:00,
2013-07-21 18:52:00,72.0,45.0,-100.00,North,-999,-999.0,-999.0,38,-99.99,,,-99.99,,2013-07-22 01:52:00,
2013-07-21 19:01:00,71.0,44.0,-100.00,North,-999,-999.0,-999.0,38,-99.99,,,-99.99,,2013-07-22 02:01:00,
2013-07-21 19:11:00,71.0,44.0,-100.00,North,-999,-999.0,-999.0,38,-99.99,,,-99.99,,2013-07-22 02:11:00,
2013-07-21 19:22:00,70.0,45.0,-100.00,North,-999,-999.0,-999.0,40,-99.99,,,-99.99,,2013-07-22 02:22:00,
2013-07-21 19:32:00,69.0,44.0,-100.00,North,-999,-999.0,-999.0,40,-99.99,,,-99.99,,2013-07-22 02:32:00,
2013-07-21 19:43:00,69.0,45.0,-100.00,North,-999,-999.0,-999.0,42,-99.99,,,-99.99,,2013-07-22 02:43:00,
2013-07-21 19:52:00,69.0,45.0,-100.00,North,-999,-999.0,-999.0,42,-99.99,,,-99.99,,2013-07-22 02:52:00,
2013-07-21 20:01:00,68.0,44.0,-100.00,North,-999,-999.0,-999.0,43,-99.99,,,-99.99,,2013-07-22 03:01:00,
2013-07-21 20:11:00,67.0,45.0,-100.00,North,-999,-999.0,-999.0,45,-99.99,,,-99.99,,2013-07-22 03:11:00,
2013-07-21 20:22:00,67.0,45.0,-100.00,North,-999,-999.0,-999.0,45,-99.99,,,-99.99,,2013-07-22 03:22:00,
2013-07-21 20:33:00,66.0,45.0,-100.00,North,-999,-999.0,-999.0,47,-99.99,,,-99.99,,2013-07-22 03:33:00,
2013-07-21 20:53:00,65.0,46.0,-100.00,North,-999,-999.0,-999.0,50,-99.99,,,-99.99,,2013-07-22 03:53:00,
2013-07-21 21:01:00,63.0,46.0,-100.00,North,-999,-999.0,-999.0,53,-99.99,,,-99.99,,2013-07-22 04:01:00,
2013-07-21 21:12:00,63.0,46.0,-100.00,North,-999,-999.0,-999.0,53,-99.99,,,-99.99,,2013-07-22 04:12:00,
2013-07-21 21:22:00,62.0,46.0,-100.00,North,-999,-999.0,-999.0,55,-99.99,,,-99.99,,2013-07-22 04:22:00,
2013-07-21 21:33:00,61.0,45.0,-100.00,North,-999,-999.0,-999.0,56,-99.99,,,-99.99,,2013-07-22 04:33:00,
2013-07-21 21:43:00,60.0,45.0,-100.00,North,-999,-999.0,-999.0,58,-99.99,,,-99.99,,2013-07-22 04:43:00,
2013-07-21 22:01:00,59.0,45.0,-100.00,North,-999,-999.0,-999.0,59,-99.99,,,-99.99,,2013-07-22 05:01:00,
2013-07-21 22:11:00,59.0,45.0,-100.00,North,-999,-999.0,-999.0,59,-99.99,,,-99.99,,2013-07-22 05:11:00,
2013-07-21 22:22:00,58.0,45.0,-100.00,North,-999,-999.0,-999.0,61,-99.99,,,-99.99,,2013-07-22 05:22:00,
2013-07-21 22:32:00,58.0,45.0,-100.00,North,-999,-999.0,-999.0,62,-99.99,,,-99.99,,2013-07-22 05:32:00,
2013-07-21 22:42:00,57.0,45.0,-100.00,North,-999,-999.0,-999.0,63,-99.99,,,-99.99,,2013-07-22 05:42:00,
2013-07-21 22:52:00,57.0,45.0,-100.00,North,-999,-999.0,-999.0,63,-99.99,,,-99.99,,2013-07-22 05:52:00,
2013-07-21 23:01:00,56.0,45.0,-100.00,North,-999,-999.0,-999.0,65,-99.99,,,-99.99,,2013-07-22 06:01:00,
2013-07-21 23:11:00,56.0,45.0,-100.00,North,-999,-999.0,-999.0,65,-99.99,,,-99.99,,2013-07-22 06:11:00,
2013-07-21 23:22:00,56.0,45.0,-100.00,North,-999,-999.0,-999.0,67,-99.99,,,-99.99,,2013-07-22 06:22:00,
2013-07-21 23:52:00,56.0,46.0,-100.00,North,-999,-999.0,-999.0,69,-99.99,,,-99.99,,2013-07-22 06:52:00,